WE0DX-1 Weather Reports


Display with metric or nautical units.
time (UTC)temp
F
wind
direction
speed
MPH
gust
MPH
rain 1hr
in
rain 24hr
in
rain mn
in
humidity
%
barometer
mb
20260903231126 95 135 1.0 5.0 0.00 0.00 0.00 45 1010.3
20260903230621 95 134 5.0 9.0 0.00 0.00 0.00 45 1010.2
20260903230120 95 122 0.0 0.0 0.00 0.00 0.00 46 1010.5
20260903225618 95 127 1.0 9.0 0.00 0.00 0.00 44 1010.4
20260903225114 95 125 4.0 5.0 0.00 0.00 0.00 44 1010.4
20260903224610 95 147 3.0 6.0 0.00 0.00 0.00 44 1010.2
20260903224106 95 141 8.0 9.0 0.00 0.00 0.00 44 1010.3
20260903223601 95 173 3.0 10.0 0.00 0.00 0.00 45 1010.1
20260903223059 95 144 4.0 8.0 0.00 0.00 0.00 44 1010.0
20260903222554 96 116 0.0 0.0 0.00 0.00 0.00 44 1010.0
20260903222053 96 148 3.0 5.0 0.00 0.00 0.00 44 1010.1
20260903221549 95 106 1.0 8.0 0.00 0.00 0.00 44 1010.4
20260903221047 95 175 7.0 10.0 0.00 0.00 0.00 44 1010.4
20260903220545 96 171 7.0 9.0 0.00 0.00 0.00 44 1010.2
20260903220040 96 131 5.0 7.0 0.00 0.00 0.00 44 1010.3
20260903215539 96 119 0.0 0.0 0.00 0.00 0.00 46 1010.1
20260903215039 95 157 0.0 0.0 0.00 0.00 0.00 44 1010.5
20260903214538 96 159 1.0 9.0 0.00 0.00 0.00 45 1010.3
20260903214034 96 105 2.0 8.0 0.00 0.00 0.00 46 1010.5
20260903213534 96 257 1.0 2.0 0.00 0.00 0.00 47 1010.4
20260903213029 96 110 0.0 0.0 0.00 0.00 0.00 46 1010.6
20260903212525 96 184 0.0 0.0 0.00 0.00 0.00 45 1010.7
20260903212020 96 169 1.0 11.0 0.00 0.00 0.00 45 1010.8
20260903211515 95 104 3.0 6.0 0.00 0.00 0.00 45 1010.7
20260903211012 95 160 3.0 8.0 0.00 0.00 0.00 45 1010.7
20260903210507 96 126 2.0 6.0 0.00 0.00 0.00 45 1010.5
20260903210002 96 182 1.0 7.0 0.00 0.00 0.00 45 1010.6
20260903205456 96 134 0.0 0.0 0.00 0.00 0.00 46 1011.1
20260903204956 95 172 5.0 7.0 0.00 0.00 0.00 46 1010.9
20260903204452 96 113 1.0 9.0 0.00 0.00 0.00 46 1011.0
20260903203948 96 119 0.0 1.0 0.00 0.00 0.00 45 1011.1
20260903203444 95 136 0.0 1.0 0.00 0.00 0.00 45 1011.1
20260903202942 96 191 3.0 3.0 0.00 0.00 0.00 44 1011.3
20260903202438 96 215 0.0 2.0 0.00 0.00 0.00 46 1011.2
20260903201933 96 129 4.0 6.0 0.00 0.00 0.00 45 1011.3
20260903201429 96 168 0.0 3.0 0.00 0.00 0.00 45 1011.2
20260903200928 96 223 3.0 5.0 0.00 0.00 0.00 44 1011.4
20260903200422 96 115 2.0 3.0 0.00 0.00 0.00 45 1011.3
20260903195917 96 123 2.0 7.0 0.00 0.00 0.00 45 1011.5
20260903195414 96 207 1.0 2.0 0.00 0.00 0.00 45 1011.5
20260903194908 95 177 2.0 3.0 0.00 0.00 0.00 46 1011.6
20260903194403 96 184 0.0 0.0 0.00 0.00 0.00 46 1011.5
20260903193859 96 136 0.0 3.0 0.00 0.00 0.00 46 1011.6
20260903193355 95 131 1.0 3.0 0.00 0.00 0.00 46 1011.8
20260903192850 95 166 2.0 3.0 0.00 0.00 0.00 46 1012.0
20260903192346 96 193 2.0 3.0 0.00 0.00 0.00 46 1011.9
20260903191842 95 195 0.0 2.0 0.00 0.00 0.00 46 1011.8
20260903191338 96 209 3.0 5.0 0.00 0.00 0.00 46 1011.9
20260903190837 96 111 0.0 3.0 0.00 0.00 0.00 46 1011.7
20260903190332 95 157 0.0 1.0 0.00 0.00 0.00 46 1011.8
20260903185825 95 201 0.0 5.0 0.00 0.00 0.00 47 1012.0
20260903185320 95 228 2.0 3.0 0.00 0.00 0.00 47 1011.8
20260903184816 95 164 4.0 5.0 0.00 0.00 0.00 48 1011.9
20260903184313 95 154 1.0 5.0 0.00 0.00 0.00 48 1011.9
20260903183808 95 197 0.0 2.0 0.00 0.00 0.00 47 1011.9
20260903183303 95 110 2.0 3.0 0.00 0.00 0.00 47 1012.3
20260903182801 95 157 0.0 1.0 0.00 0.00 0.00 48 1012.1
20260903182256 95 83 3.0 6.0 0.00 0.00 0.00 49 1012.4
20260903181756 94 217 3.0 7.0 0.00 0.00 0.00 47 1012.4
20260903181251 94 169 2.0 5.0 0.00 0.00 0.00 48 1012.5
20260903180746 94 143 2.0 8.0 0.00 0.00 0.00 48 1012.8
20260903180245 94 172 4.0 14.0 0.00 0.00 0.00 50 1012.5
20260903175744 93 213 2.0 10.0 0.00 0.00 0.00 49 1012.7
20260903175243 94 117 3.0 5.0 0.00 0.00 0.00 50 1012.5
20260903174743 94 224 2.0 5.0 0.00 0.00 0.00 51 1012.9
20260903174238 94 85 1.0 3.0 0.00 0.00 0.00 50 1012.5
20260903173733 94 156 3.0 10.0 0.00 0.00 0.00 52 1012.7
20260903173230 93 146 0.0 3.0 0.00 0.00 0.00 50 1013.0
20260903172729 93 109 0.0 1.0 0.00 0.00 0.00 51 1013.1
20260903172224 93 158 3.0 3.0 0.00 0.00 0.00 50 1013.0
20260903171719 93 169 7.0 11.0 0.00 0.00 0.00 51 1013.2
20260903171216 93 128 4.0 6.0 0.00 0.00 0.00 53 1013.0
20260903170714 93 126 4.0 7.0 0.00 0.00 0.00 52 1013.0
20260903170210 93 194 2.0 3.0 0.00 0.00 0.00 52 1013.3
20260903165707 91 151 6.0 9.0 0.00 0.00 0.00 53 1013.3
20260903165203 93 132 0.0 0.0 0.00 0.00 0.00 53 1013.2
20260903164657 92 177 0.0 6.0 0.00 0.00 0.00 55 1013.3
20260903164153 93 158 3.0 6.0 0.00 0.00 0.00 53 1013.4
20260903163653 92 136 0.0 0.0 0.00 0.00 0.00 54 1013.3
20260903163149 92 176 1.0 2.0 0.00 0.00 0.00 55 1013.4
20260903162645 91 82 2.0 5.0 0.00 0.00 0.00 55 1013.2
20260903162141 91 138 5.0 7.0 0.00 0.00 0.00 54 1013.5
20260903161636 91 182 2.0 3.0 0.00 0.00 0.00 55 1013.4
20260903161131 91 141 2.0 6.0 0.00 0.00 0.00 56 1013.6
20260903160626 91 115 5.0 7.0 0.00 0.00 0.00 56 1013.7
20260903160121 90 130 0.0 0.0 0.00 0.00 0.00 57 1013.5
20260903155620 90 185 0.0 2.0 0.00 0.00 0.00 56 1013.7
20260903155115 90 135 0.0 0.0 0.00 0.00 0.00 56 1013.5
20260903154611 89 234 2.0 5.0 0.00 0.00 0.00 56 1013.7
20260903154107 89 166 1.0 6.0 0.00 0.00 0.00 57 1013.4
20260903153602 89 186 5.0 7.0 0.00 0.00 0.00 57 1013.5
20260903153058 89 169 1.0 2.0 0.00 0.00 0.00 57 1013.6
20260903152554 89 224 2.0 6.0 0.00 0.00 0.00 57 1013.9
20260903152050 88 107 2.0 3.0 0.00 0.00 0.00 58 1013.5
20260903151549 89 144 3.0 5.0 0.00 0.00 0.00 58 1013.6
20260903151039 89 290 1.0 6.0 0.00 0.00 0.00 58 1013.5
20260903150538 89 104 0.0 1.0 0.00 0.00 0.00 60 1013.5
20260903150034 87 92 0.0 0.0 0.00 0.00 0.00 60 1013.6
20260903145527 87 103 1.0 2.0 0.00 0.00 0.00 60 1013.6
20260903145023 87 193 1.0 2.0 0.00 0.00 0.00 61 1013.8
20260903144522 87 208 2.0 2.0 0.00 0.00 0.00 60 1013.7
20260903144018 87 116 0.0 3.0 0.00 0.00 0.00 60 1013.7
20260903143514 86 185 0.0 2.0 0.00 0.00 0.00 61 1013.7
20260903143010 86 167 2.0 3.0 0.00 0.00 0.00 62 1013.6
20260903142505 86 163 0.0 0.0 0.00 0.00 0.00 61 1013.7
20260903142001 86 151 0.0 1.0 0.00 0.00 0.00 62 1013.7
20260903141456 86 219 2.0 6.0 0.00 0.00 0.00 62 1013.7
20260903140952 85 162 0.0 2.0 0.00 0.00 0.00 63 1013.8
20260903140447 85 230 3.0 3.0 0.00 0.00 0.00 63 1013.6
20260903135942 85 99 1.0 3.0 0.00 0.00 0.00 64 1013.6
20260903135438 84 154 1.0 2.0 0.00 0.00 0.00 64 1013.6
20260903134933 84 189 0.0 0.0 0.00 0.00 0.00 65 1013.6
20260903134432 83 133 0.0 0.0 0.00 0.00 0.00 66 1013.6
20260903133930 83 202 0.0 0.0 0.00 0.00 0.00 65 1013.7
20260903133426 83 109 0.0 0.0 0.00 0.00 0.00 67 1013.6
20260903132921 83 102 0.0 0.0 0.00 0.00 0.00 67 1013.4
20260903132416 83 125 1.0 2.0 0.00 0.00 0.00 67 1013.8
20260903131910 82 92 0.0 0.0 0.00 0.00 0.00 67 1013.7
20260903131405 82 120 0.0 0.0 0.00 0.00 0.00 68 1013.7
20260903130904 82 112 0.0 0.0 0.00 0.00 0.00 68 1013.7
20260903130359 82 83 0.0 0.0 0.00 0.00 0.00 68 1013.7
20260903125858 81 103 0.0 1.0 0.00 0.00 0.00 69 1013.5
20260903125352 81 90 0.0 0.0 0.00 0.00 0.00 69 1013.5
20260903124852 81 96 0.0 0.0 0.00 0.00 0.00 69 1013.4
20260903124342 81 116 0.0 0.0 0.00 0.00 0.00 68 1013.4
20260903123840 81 99 0.0 0.0 0.00 0.00 0.00 69 1013.4
20260903123335 81 4 1.0 1.0 0.00 0.00 0.00 69 1013.5
20260903122834 81 122 0.0 0.0 0.00 0.00 0.00 69 1013.5
20260903122329 81 100 0.0 0.0 0.00 0.00 0.00 68 1013.3
20260903121827 81 104 0.0 0.0 0.00 0.00 0.00 68 1013.2
20260903121323 81 105 0.0 0.0 0.00 0.00 0.00 68 1012.9
20260903120818 81 138 0.0 0.0 0.00 0.00 0.00 68 1013.1
20260903120312 80 135 0.0 0.0 0.00 0.00 0.00 69 1013.1
20260903115811 81 143 0.0 0.0 0.00 0.00 0.00 69 1013.1
20260903115306 81 118 0.0 0.0 0.00 0.00 0.00 68 1013.0
20260903114806 81 122 0.0 0.0 0.00 0.00 0.00 68 1012.9
20260903114302 81 163 1.0 1.0 0.00 0.00 0.00 67 1013.1
20260903113756 81 102 0.0 0.0 0.00 0.00 0.00 68 1012.8
20260903113252 81 126 0.0 0.0 0.00 0.00 0.00 67 1012.9
20260903112748 81 95 0.0 0.0 0.00 0.00 0.00 68 1012.8
20260903112244 81 167 0.0 0.0 0.00 0.00 0.00 67 1012.9
20260903111742 81 107 0.0 0.0 0.00 0.00 0.00 67 1012.7
20260903111238 81 90 0.0 0.0 0.00 0.00 0.00 67 1012.7
20260903110734 81 99 0.0 1.0 0.00 0.00 0.00 66 1012.8
20260903110229 82 92 0.0 1.0 0.00 0.00 0.00 66 1012.7
20260903105729 81 118 0.0 1.0 0.00 0.00 0.00 66 1012.7
20260903105224 81 183 0.0 0.0 0.00 0.00 0.00 66 1012.8
20260903104723 81 100 0.0 0.0 0.00 0.00 0.00 66 1012.7
20260903104219 81 100 0.0 0.0 0.00 0.00 0.00 66 1012.5
20260903103714 81 177 0.0 0.0 0.00 0.00 0.00 65 1012.5
20260903103210 81 153 0.0 0.0 0.00 0.00 0.00 65 1012.3
20260903102706 81 101 0.0 0.0 0.00 0.00 0.00 66 1012.5
20260903102200 81 139 0.0 0.0 0.00 0.00 0.00 65 1012.4
20260903101659 81 104 0.0 1.0 0.00 0.00 0.00 65 1012.4
20260903101155 81 70 0.0 0.0 0.00 0.00 0.00 64 1012.3
20260903100655 81 132 0.0 0.0 0.00 0.00 0.00 64 1012.4
20260903100154 82 140 0.0 1.0 0.00 0.00 0.00 64 1012.2
20260903095651 81 109 0.0 0.0 0.00 0.00 0.00 64 1012.2
20260903095146 82 147 0.0 0.0 0.00 0.00 0.00 63 1012.2
20260903094642 82 107 0.0 0.0 0.00 0.00 0.00 63 1012.4
20260903094137 82 125 0.0 0.0 0.00 0.00 0.00 63 1012.4
20260903093632 82 153 0.0 0.0 0.00 0.00 0.00 63 1012.5
20260903093127 82 100 0.0 0.0 0.00 0.00 0.00 62 1012.0
20260903092626 82 142 0.0 0.0 0.00 0.00 0.00 62 1012.2
20260903092121 82 118 0.0 0.0 0.00 0.00 0.00 62 1012.4
20260903091620 82 113 0.0 0.0 0.00 0.00 0.00 62 1012.3
20260903091114 82 140 0.0 0.0 0.00 0.00 0.00 62 1012.4
20260903090610 82 98 0.0 0.0 0.00 0.00 0.00 62 1012.3
20260903090108 82 113 0.0 0.0 0.00 0.00 0.00 62 1012.4
20260903085607 82 103 0.0 0.0 0.00 0.00 0.00 62 1012.4
20260903085103 82 116 0.0 0.0 0.00 0.00 0.00 61 1012.3
20260903084601 82 124 0.0 0.0 0.00 0.00 0.00 61 1012.2
20260903084056 82 136 0.0 0.0 0.00 0.00 0.00 61 1012.3
20260903083552 82 158 0.0 0.0 0.00 0.00 0.00 62 1012.4
20260903083052 82 90 0.0 0.0 0.00 0.00 0.00 62 1012.4
20260903082546 82 133 0.0 0.0 0.00 0.00 0.00 63 1012.4
20260903082041 82 92 0.0 0.0 0.00 0.00 0.00 63 1012.2
20260903081536 82 92 0.0 0.0 0.00 0.00 0.00 62 1012.2
20260903081032 82 89 0.0 0.0 0.00 0.00 0.00 62 1012.1
20260903080529 83 95 0.0 0.0 0.00 0.00 0.00 60 1012.0
20260903080025 83 79 0.0 0.0 0.00 0.00 0.00 60 1012.2
20260903075520 82 88 0.0 0.0 0.00 0.00 0.00 61 1012.2
20260903075015 82 134 0.0 0.0 0.00 0.00 0.00 61 1012.3
20260903074514 83 102 0.0 0.0 0.00 0.00 0.00 61 1012.4
20260903074009 83 103 0.0 0.0 0.00 0.00 0.00 60 1012.3
20260903073504 83 112 0.0 0.0 0.00 0.00 0.00 60 1012.1
20260903073000 83 105 0.0 0.0 0.00 0.00 0.00 59 1012.2
20260903072455 83 86 0.0 0.0 0.00 0.00 0.00 60 1012.3
20260903071952 83 106 0.0 0.0 0.00 0.00 0.00 60 1012.2
20260903071448 83 90 0.0 0.0 0.00 0.00 0.00 61 1012.2
20260903070944 83 100 0.0 0.0 0.00 0.00 0.00 61 1012.3
20260903070444 83 103 0.0 0.0 0.00 0.00 0.00 61 1012.3
20260903065943 82 110 0.0 0.0 0.00 0.00 0.00 62 1012.4
20260903065439 82 100 0.0 0.0 0.00 0.00 0.00 62 1012.4
20260903064938 82 98 0.0 0.0 0.00 0.00 0.00 62 1012.2
20260903064433 82 90 0.0 0.0 0.00 0.00 0.00 62 1012.4
20260903063928 82 100 0.0 0.0 0.00 0.00 0.00 62 1012.4
20260903063424 82 92 0.0 0.0 0.00 0.00 0.00 62 1012.5
20260903062920 83 86 0.0 0.0 0.00 0.00 0.00 61 1012.5
20260903062420 83 93 0.0 0.0 0.00 0.00 0.00 61 1012.5
20260903061915 83 87 0.0 0.0 0.00 0.00 0.00 61 1012.5
20260903061414 83 127 0.0 0.0 0.00 0.00 0.00 60 1012.4
20260903060911 84 107 0.0 0.0 0.00 0.00 0.00 59 1012.5
20260903060410 84 86 0.0 0.0 0.00 0.00 0.00 60 1012.2
20260903055908 84 104 0.0 0.0 0.00 0.00 0.00 59 1012.5
20260903055407 84 99 0.0 0.0 0.00 0.00 0.00 59 1012.8
20260903054901 84 121 0.0 0.0 0.00 0.00 0.00 59 1012.5
20260903054355 84 95 0.0 0.0 0.00 0.00 0.00 59 1012.7
20260903053852 84 90 0.0 0.0 0.00 0.00 0.00 59 1012.4
20260903053346 84 100 0.0 0.0 0.00 0.00 0.00 58 1012.2
20260903052843 84 100 0.0 0.0 0.00 0.00 0.00 58 1012.2
20260903052338 85 105 0.0 0.0 0.00 0.00 0.00 58 1012.4
20260903051834 85 95 0.0 0.0 0.00 0.00 0.00 58 1012.4
20260903051329 85 104 0.0 0.0 0.00 0.00 0.00 58 1012.4
20260903050825 84 93 0.0 0.0 0.00 0.00 0.00 58 1012.2
20260903050323 84 90 0.0 0.0 0.00 0.00 0.00 59 1012.3
20260903045818 85 88 0.0 0.0 0.00 0.00 0.00 59 1012.3
20260903045314 85 106 0.0 0.0 0.00 0.00 0.00 58 1012.1
20260903044811 85 97 0.0 0.0 0.00 0.00 0.00 58 1012.2
20260903044305 85 99 0.0 0.0 0.00 0.00 0.00 58 1012.3
20260903043802 85 98 0.0 0.0 0.00 0.00 0.00 58 1012.4
20260903043302 86 105 0.0 0.0 0.00 0.00 0.00 57 1012.4
20260903042800 86 96 0.0 0.0 0.00 0.00 0.00 57 1012.5
20260903042251 86 95 0.0 0.0 0.00 0.00 0.00 57 1012.3
20260903041747 86 121 0.0 0.0 0.00 0.00 0.00 57 1012.3
20260903041243 86 75 0.0 0.0 0.00 0.00 0.00 56 1012.4
20260903040742 86 100 0.0 0.0 0.00 0.00 0.00 56 1012.5
20260903040237 86 102 0.0 0.0 0.00 0.00 0.00 56 1012.3
20260903035733 86 115 0.0 0.0 0.00 0.00 0.00 56 1012.5
20260903035229 86 103 0.0 0.0 0.00 0.00 0.00 56 1012.5
20260903034728 86 99 0.0 0.0 0.00 0.00 0.00 56 1012.7
20260903034224 86 88 0.0 0.0 0.00 0.00 0.00 56 1012.5
20260903033719 87 103 0.0 0.0 0.00 0.00 0.00 56 1012.3
20260903033214 87 97 0.0 0.0 0.00 0.00 0.00 55 1012.5
20260903032708 87 97 0.0 0.0 0.00 0.00 0.00 55 1012.7
20260903032204 87 121 0.0 0.0 0.00 0.00 0.00 54 1012.7
20260903031700 87 107 0.0 0.0 0.00 0.00 0.00 54 1012.2
20260903031154 87 95 0.0 0.0 0.00 0.00 0.00 54 1012.4
20260903030650 88 133 0.0 0.0 0.00 0.00 0.00 53 1012.5
20260903030145 88 112 0.0 0.0 0.00 0.00 0.00 53 1012.4
20260903025640 88 112 0.0 0.0 0.00 0.00 0.00 53 1012.3
20260903025136 88 108 0.0 0.0 0.00 0.00 0.00 53 1012.3
20260903024630 88 104 0.0 0.0 0.00 0.00 0.00 52 1012.1
20260903024124 88 96 0.0 0.0 0.00 0.00 0.00 52 1012.1
20260903023620 88 94 0.0 0.0 0.00 0.00 0.00 52 1012.7
20260903023120 88 117 0.0 0.0 0.00 0.00 0.00 52 1012.1
20260903022615 89 89 0.0 0.0 0.00 0.00 0.00 52 1012.4
20260903022114 88 98 0.0 0.0 0.00 0.00 0.00 52 1012.3
20260903021608 89 91 0.0 0.0 0.00 0.00 0.00 52 1012.3
20260903021103 89 89 0.0 0.0 0.00 0.00 0.00 51 1012.3
20260903020559 89 94 0.0 0.0 0.00 0.00 0.00 51 1012.1
20260903020058 89 88 0.0 0.0 0.00 0.00 0.00 51 1012.0
20260903015554 89 105 0.0 0.0 0.00 0.00 0.00 50 1011.9
20260903015043 89 94 0.0 0.0 0.00 0.00 0.00 50 1011.9
20260903014543 90 97 0.0 0.0 0.00 0.00 0.00 48 1011.9
20260903014038 90 96 0.0 0.0 0.00 0.00 0.00 48 1011.9
20260903013537 90 95 0.0 0.0 0.00 0.00 0.00 48 1011.8
20260903013032 90 93 0.0 0.0 0.00 0.00 0.00 47 1011.4
20260903012525 90 98 0.0 0.0 0.00 0.00 0.00 48 1011.7
20260903012019 90 106 0.0 0.0 0.00 0.00 0.00 47 1011.9
20260903011519 90 127 0.0 0.0 0.00 0.00 0.00 48 1011.3
20260903011014 91 94 0.0 0.0 0.00 0.00 0.00 48 1011.4
20260903010509 91 106 0.0 0.0 0.00 0.00 0.00 48 1011.5
20260903010007 91 95 0.0 0.0 0.00 0.00 0.00 47 1011.5
20260903005502 92 93 0.0 0.0 0.00 0.00 0.00 47 1011.7
20260903004958 92 112 0.0 0.0 0.00 0.00 0.00 45 1011.4
20260903004458 93 95 0.0 0.0 0.00 0.00 0.00 45 1011.5
20260903003954 93 102 0.0 0.0 0.00 0.00 0.00 45 1011.5
20260903003449 93 102 0.0 0.0 0.00 0.00 0.00 45 1011.5
20260903002944 93 103 0.0 0.0 0.00 0.00 0.00 44 1011.5
20260903002444 93 126 0.0 0.0 0.00 0.00 0.00 44 1011.4
20260903001944 93 106 0.0 0.0 0.00 0.00 0.00 44 1011.7
20260903001444 94 98 0.0 0.0 0.00 0.00 0.00 45 1011.4
20260903000938 94 93 0.0 0.0 0.00 0.00 0.00 44 1011.7
20260903000434 94 115 0.0 0.0 0.00 0.00 0.00 44 1011.5
20260902235932 94 97 0.0 0.0 0.00 0.00 0.00 44 1011.4
20260902235427 95 98 0.0 0.0 0.00 0.00 0.00 44 1011.6
20260902234926 95 89 0.0 0.0 0.00 0.00 0.00 43 1011.7
20260902234421 95 108 0.0 0.0 0.00 0.00 0.00 43 1011.6
20260902233921 95 156 2.0 6.0 0.00 0.00 0.00 43 1011.5
20260902233415 95 128 0.0 0.0 0.00 0.00 0.00 43 1011.5
20260902232915 96 130 0.0 0.0 0.00 0.00 0.00 43 1011.5
20260902232410 96 126 0.0 0.0 0.00 0.00 0.00 43 1011.8
20260902231909 96 105 0.0 0.0 0.00 0.00 0.00 43 1011.4
20260902231403 96 129 1.0 3.0 0.00 0.00 0.00 42 1011.6